Wind_Speed
5 5 5 5 5 5 5 5 5 6 6 6 6 6 7 7 6 7 7 7 7 8 7 7 8 8 8 9 10 10 10 10 11 12 12 12 12 12 12 12 13 13 14
6 6 5 6 6 6 6 6 6 6 6 6 7 7 7 7 7 7 7 8 8 8 9 8 9 9 9 9 9 10 10 11 11 11 12 12 13 13 12 13 13 13 13
7 6 6 6 7 7 7 7 7 7 7 7 7 7 6 6 7 7 8 8 9 10 9 10 10 10 10 10 10 10 10 11 12 12 12 12 13 13 13 13 13 13 13
7 8 7 7 7 7 8 8 8 8 8 8 8 8 7 7 7 8 9 9 10 10 10 10 10 10 10 11 11 11 11 11 12 12 13 13 13 13 13 13 13 13 14
8 9 9 9 8 9 9 9 9 8 9 9 8 8 8 8 8 9 9 10 10 11 11 11 11 11 11 11 11 11 12 12 12 13 13 13 13 13 13 14 14 14 14
9 9 10 10 10 10 10 10 10 10 10 9 9 9 9 9 9 10 10 10 11 11 11 11 12 12 12 11 12 12 13 13 13 14 14 14 15 15 14 15 15 15 15
10 10 11 12 12 11 11 11 11 11 11 10 10 10 10 10 10 11 11 11 11 11 11 11 12 12 12 12 13 13 13 14 14 15 15 15 15 16 16 16 16 16 16
11 11 12 13 13 12 12 12 12 12 12 11 11 11 12 11 11 11 11 12 12 12 12 12 12 12 12 13 14 14 15 15 15 15 15 15 15 16 16 16 17 17 17
12 12 13 14 14 14 13 13 14 14 13 13 13 13 13 13 13 13 12 12 12 12 13 13 13 13 13 14 15 16 16 16 16 16 16 16 16 16 16 16 17 17 17
14 14 14 15 15 15 15 15 15 15 15 14 14 14 14 14 14 14 14 14 14 14 14 14 14 14 15 15 16 16 16 17 17 17 17 17 17 18 18 18 17 17 18
16 16 16 16 16 15 16 17 17 17 16 16 16 16 16 16 16 16 16 15 15 15 15 15 15 16 16 17 17 17 17 18 18 18 18 19 19 19 19 19 19 19 19
17 17 17 17 17 17 17 17 18 18 18 19 19 18 18 18 18 17 17 17 17 17 17 16 16 17 17 17 17 18 18 19 19 19 19 20 20 20 19 20 20 20 19
18 18 17 18 18 18 19 19 19 20 20 20 20 19 19 19 19 19 19 18 18 18 18 18 18 18 18 18 18 19 19 20 20 20 20 20 20 20 20 20 21 21 20
19 19 18 19 19 19 20 21 21 21 21 21 20 20 19 19 19 20 20 20 19 19 19 18 19 19 19 19 19 20 20 20 21 21 21 21 21 21 21 21 21 22 22
21 21 20 20 20 20 21 21 21 22 22 21 21 20 20 20 20 20 20 20 20 20 20 20 20 20 20 20 20 20 20 21 21 21 22 22 22 22 22 22 22 23 23
22 21 20 21 21 20 20 20 21 21 21 21 21 21 21 21 21 21 21 21 21 21 21 21 21 21 21 21 21 22 22 22 22 22 22 23 23 23 23 23 23 23 23
24 24 23 21 21 20 20 20 21 22 22 22 22 22 21 22 22 22 23 23 22 22 22 22 22 23 22 22 22 22 22 23 23 23 23 23 24 24 24 24 24 24 24
26 25 24 22 21 20 21 21 21 22 22 23 22 23 23 23 24 24 24 24 24 24 24 24 24 24 23 23 23 23 23 23 23 24 24 24 24 24 24 24 24 25 24
25 24 24 23 22 21 21 22 23 23 22 23 23 23 23 24 24 24 24 24 25 25 25 25 25 24 24 24 24 24 24 24 24 24 25 25 24 24 24 24 24 25 25
24 23 23 23 23 23 22 22 23 24 23 23 24 24 24 25 25 25 25 25 25 26 26 26 26 26 26 25 25 25 25 25 25 25 26 26 26 26 25 25 25 26 27
24 24 24 23 23 24 24 24 23 23 24 24 24 25 25 26 26 25 25 26 27 27 27 28 28 28 27 27 26 26 26 26 26 27 27 27 27 27 27 27 27 27 27
25 25 24 24 24 25 25 25 25 24 25 26 26 26 26 27 27 27 27 28 28 28 28 28 29 29 29 29 28 28 28 27 27 28 28 28 28 28 28 28 27 27 27
26 26 25 25 26 26 26 26 27 27 27 27 28 28 28 28 28 28 29 29 29 29 29 29 29 30 30 30 30 30 30 30 29 28 29 29 28 28 28 27 27 27 27
27 27 27 27 27 27 28 28 28 28 29 29 29 29 29 29 30 30 30 31 31 31 31 31 31 31 31 31 31 31 31 31 31 30 29 29 29 29 28 28 28 28 28
29 28 28 28 28 28 28 29 29 30 30 30 30 30 30 31 31 31 31 32 32 33 33 33 32 32 32 32 32 31 31 30 30 30 30 30 30 29 29 28 28 28 28
29 29 29 29 29 29 29 29 30 30 31 32 31 30 30 31 32 32 32 33 33 33 34 33 32 32 33 33 32 32 31 31 31 31 31 30 30 30 30 29 29 29 29
Wind_Direction
303 304 301 299 298 299 298 294 291 287 284 285 286 284 280 273 269 267 265 262 259 259 259 262 267 269 268 266 264 264 265 263 260 261 262 266 266 264 263 261 263 263 262
290 295 294 291 293 298 299 297 295 291 286 289 289 286 282 275 271 266 264 262 259 259 260 264 269 272 271 268 267 268 266 265 265 265 265 266 264 264 265 265 263 262 262
285 288 288 285 288 293 294 296 295 293 291 292 289 282 277 275 273 268 265 263 261 263 263 265 270 273 272 270 268 269 268 267 268 268 268 267 265 264 264 266 264 262 262
285 286 285 284 288 293 294 293 293 294 292 290 287 280 275 271 271 269 266 263 263 265 265 269 272 272 271 270 268 267 266 269 270 268 269 268 267 266 266 266 265 264 264
286 283 283 284 285 287 289 291 291 293 289 285 281 278 275 271 268 268 267 264 264 267 268 271 271 271 271 269 267 267 268 270 272 271 270 271 270 269 269 267 266 267 266
285 283 280 282 284 286 287 287 286 287 284 280 277 274 273 270 269 268 268 267 267 266 269 270 270 269 269 269 270 269 271 273 273 272 271 271 271 269 269 269 268 268 268
282 280 280 283 285 285 285 283 281 283 280 277 277 275 273 270 270 270 268 268 267 265 267 269 269 269 269 269 271 272 273 274 273 273 273 273 273 270 269 269 268 267 268
279 279 279 279 280 281 281 280 279 280 279 277 276 276 275 272 270 272 271 269 266 264 265 267 270 272 270 271 271 271 272 273 272 272 273 273 273 271 271 270 267 266 268
276 277 278 277 278 277 277 276 280 278 277 275 274 274 275 272 271 272 271 268 265 266 269 270 271 272 272 273 272 272 273 271 271 272 272 272 272 270 271 270 268 267 268
275 275 276 276 275 275 274 273 277 278 275 275 274 273 271 272 271 272 270 268 266 267 270 272 272 273 273 273 274 274 273 272 272 271 271 271 271 271 271 270 269 269 270
274 271 273 273 273 274 275 273 274 276 275 274 273 272 271 272 271 270 269 269 269 268 270 273 273 273 274 274 274 274 273 273 272 271 271 271 271 270 271 270 269 270 270
268 267 268 270 272 274 274 273 274 274 275 274 274 273 273 272 270 268 269 269 269 268 270 273 275 276 275 273 274 275 274 273 272 272 273 272 271 270 270 270 269 269 271
268 265 268 266 269 273 274 273 274 275 275 274 274 273 272 271 268 267 268 269 269 268 270 274 276 277 276 275 275 275 274 273 273 274 274 273 272 270 271 271 270 269 269
272 268 268 269 270 271 273 273 274 274 274 273 274 273 271 269 267 267 267 268 269 269 270 272 275 276 277 277 277 277 277 274 273 272 272 273 272 272 272 271 271 270 268
274 272 269 270 270 273 274 273 273 273 273 272 271 271 269 268 267 268 268 268 270 270 270 271 273 275 277 277 277 279 278 277 274 273 272 272 272 272 271 270 270 270 270
275 274 270 269 271 273 273 273 272 273 272 272 270 269 268 268 268 269 268 269 270 269 270 273 272 273 275 275 276 278 278 277 276 275 274 272 274 272 270 271 271 272 272
274 275 275 271 269 270 271 270 271 271 271 271 270 268 267 267 268 269 269 270 269 269 271 271 272 273 274 275 276 278 278 277 276 275 276 274 274 274 271 271 272 273 273
276 276 275 270 269 270 269 269 270 272 272 271 271 270 268 268 268 270 270 270 271 271 271 272 272 273 273 274 277 277 278 276 275 276 276 275 273 273 271 270 270 272 272
276 276 273 271 268 267 268 270 270 271 272 271 271 271 272 271 270 271 271 271 271 272 271 271 271 272 273 274 275 276 276 274 273 274 274 274 272 271 271 270 270 271 271
277 276 273 272 270 267 267 269 271 272 272 272 270 270 271 271 271 270 270 271 271 272 271 270 271 271 272 272 273 273 274 273 273 273 272 272 271 270 270 271 271 271 271
275 275 275 273 271 269 269 270 272 271 273 273 272 271 270 271 271 270 270 271 271 271 272 271 270 270 270 271 271 272 273 272 272 272 271 270 269 269 269 270 271 270 270
273 274 274 272 271 270 270 271 270 270 272 272 272 272 272 272 271 270 269 269 271 270 272 271 270 270 270 270 271 272 272 272 272 272 271 270 269 268 269 270 270 270 270
272 271 273 273 271 270 271 272 271 271 271 272 272 272 272 271 272 270 269 268 270 271 271 272 271 270 270 271 272 272 272 272 272 272 271 269 268 268 269 270 270 269 270
273 273 273 274 273 273 272 272 272 273 273 273 273 273 272 271 271 271 271 270 271 272 272 272 270 270 271 271 272 274 272 271 271 270 270 269 268 268 268 268 268 269 270
274 275 274 274 274 274 274 273 273 274 274 273 274 274 273 271 271 271 271 272 272 272 272 271 270 270 271 272 272 272 271 270 269 269 269 268 266 265 266 267 267 268 269
275 276 276 276 275 276 277 275 274 273 273 274 275 276 275 274 273 272 272 272 272 272 272 272 271 272 272 272 271 270 269 269 269 268 268 268 266 266 266 266 267 268 268
Height
5847 5847 5846 5846 5845 5845 5844 5844 5843 5843 5842 5842 5841 5841 5840 5840 5840 5839 5839 5839 5839 5839 5840 5840 5840 5840 5840 5840 5840 5840 5840 5840 5840 5840 5840 5840 5840 5840 5840 5840 5840 5840 5840
5846 5845 5844 5844 5843 5843 5842 5842 5841 5841 5840 5840 5839 5839 5838 5838 5837 5837 5837 5837 5837 5837 5837 5837 5837 5837 5837 5837 5837 5837 5837 5837 5837 5837 5837 5837 5838 5837 5837 5837 5837 5837 5837
5843 5843 5842 5842 5841 5841 5840 5840 5839 5839 5838 5838 5837 5837 5836 5836 5835 5835 5835 5834 5834 5834 5834 5834 5834 5834 5834 5834 5834 5834 5834 5834 5834 5834 5834 5834 5834 5834 5834 5833 5833 5833 5833
5841 5841 5840 5839 5839 5839 5838 5837 5837 5836 5835 5835 5834 5834 5834 5834 5833 5833 5832 5832 5832 5831 5831 5831 5831 5831 5831 5831 5831 5831 5831 5831 5830 5830 5830 5831 5830 5830 5830 5830 5830 5829 5829
5838 5838 5837 5837 5836 5836 5835 5835 5834 5834 5833 5832 5832 5832 5831 5831 5830 5830 5830 5830 5829 5829 5828 5828 5828 5828 5828 5828 5828 5827 5827 5827 5827 5827 5826 5826 5826 5826 5826 5826 5826 5826 5825
5835 5834 5834 5833 5833 5833 5833 5832 5831 5831 5830 5830 5829 5829 5828 5828 5827 5827 5827 5826 5826 5826 5825 5825 5825 5824 5824 5824 5824 5824 5824 5823 5823 5823 5823 5822 5822 5822 5822 5822 5822 5822 5821
5831 5831 5831 5830 5830 5830 5830 5829 5828 5828 5827 5827 5826 5826 5825 5825 5824 5824 5823 5823 5823 5822 5822 5822 5822 5821 5821 5820 5820 5820 5819 5819 5819 5819 5818 5818 5818 5818 5818 5817 5817 5817 5817
5828 5828 5828 5827 5827 5827 5826 5826 5825 5825 5824 5823 5823 5822 5822 5821 5821 5820 5820 5820 5819 5819 5819 5818 5818 5817 5817 5816 5816 5816 5815 5815 5814 5814 5814 5814 5813 5813 5813 5813 5813 5813 5813
5824 5824 5824 5824 5823 5823 5823 5822 5821 5821 5820 5820 5819 5818 5818 5817 5817 5817 5816 5816 5816 5815 5815 5814 5814 5813 5813 5812 5812 5811 5811 5810 5810 5809 5809 5809 5808 5808 5808 5808 5808 5808 5808
5820 5819 5819 5819 5819 5819 5818 5818 5817 5817 5816 5816 5815 5814 5814 5813 5813 5813 5812 5812 5811 5811 5811 5810 5810 5809 5808 5808 5807 5806 5806 5805 5805 5804 5804 5804 5803 5803 5803 5802 5802 5802 5802
5815 5815 5814 5814 5814 5814 5813 5813 5812 5812 5811 5811 5810 5810 5809 5809 5808 5808 5807 5807 5807 5806 5806 5806 5805 5804 5804 5803 5802 5801 5801 5800 5799 5799 5799 5798 5798 5797 5797 5797 5797 5796 5797
5809 5809 5809 5809 5808 5808 5808 5807 5807 5806 5806 5806 5805 5804 5804 5804 5803 5803 5802 5802 5802 5801 5801 5800 5800 5799 5798 5797 5797 5796 5795 5794 5794 5793 5793 5792 5792 5791 5791 5791 5791 5791 5791
5804 5804 5803 5803 5802 5802 5802 5801 5801 5801 5800 5800 5799 5799 5798 5798 5797 5797 5797 5797 5796 5796 5796 5795 5794 5793 5792 5792 5791 5790 5789 5788 5788 5787 5787 5786 5786 5786 5785 5785 5785 5785 5785
5798 5798 5798 5797 5796 5796 5795 5795 5795 5794 5794 5793 5793 5793 5792 5792 5791 5791 5791 5791 5790 5790 5790 5789 5788 5788 5787 5786 5785 5784 5783 5782 5781 5781 5780 5780 5780 5779 5779 5779 5778 5778 5778
5792 5791 5791 5791 5790 5789 5788 5788 5788 5788 5787 5787 5786 5786 5786 5786 5786 5785 5785 5785 5784 5784 5784 5783 5782 5781 5781 5779 5778 5777 5776 5775 5775 5774 5774 5773 5773 5772 5772 5772 5772 5771 5771
5786 5785 5784 5784 5783 5783 5782 5782 5781 5781 5781 5781 5780 5780 5780 5780 5780 5779 5779 5778 5778 5777 5777 5777 5776 5775 5774 5773 5772 5771 5770 5769 5768 5767 5767 5766 5766 5765 5765 5765 5765 5765 5764
5779 5779 5778 5777 5776 5776 5775 5775 5775 5775 5774 5774 5774 5773 5773 5773 5773 5773 5772 5772 5771 5771 5770 5770 5769 5768 5767 5766 5765 5764 5763 5762 5761 5760 5760 5759 5759 5758 5758 5758 5757 5757 5757
5772 5771 5770 5770 5769 5769 5768 5768 5768 5768 5768 5767 5767 5767 5766 5766 5766 5765 5765 5764 5764 5763 5763 5762 5762 5761 5760 5759 5758 5757 5756 5755 5754 5753 5753 5752 5751 5751 5751 5750 5750 5750 5750
5764 5764 5763 5763 5762 5762 5762 5762 5761 5761 5761 5760 5760 5760 5759 5759 5758 5758 5757 5756 5756 5756 5755 5755 5754 5753 5752 5751 5751 5750 5749 5748 5747 5746 5745 5745 5744 5744 5743 5743 5743 5743 5742
5757 5757 5756 5755 5755 5755 5755 5755 5754 5754 5754 5753 5753 5752 5751 5751 5750 5750 5749 5749 5748 5748 5747 5747 5746 5745 5745 5744 5743 5742 5741 5741 5740 5739 5738 5737 5737 5736 5736 5736 5735 5735 5734
5750 5749 5748 5748 5747 5747 5747 5747 5747 5747 5746 5746 5745 5744 5743 5743 5742 5742 5741 5741 5740 5740 5739 5739 5738 5737 5736 5736 5735 5734 5733 5732 5731 5731 5730 5729 5728 5728 5728 5727 5727 5727 5726
5742 5742 5741 5740 5740 5740 5739 5739 5739 5739 5738 5738 5737 5736 5735 5734 5734 5733 5732 5732 5732 5731 5730 5730 5729 5729 5728 5727 5726 5725 5724 5724 5723 5722 5721 5720 5720 5719 5719 5719 5719 5718 5718
5734 5733 5733 5733 5732 5731 5731 5730 5730 5730 5730 5729 5728 5727 5726 5726 5725 5724 5723 5723 5722 5722 5721 5721 5720 5720 5719 5718 5717 5716 5715 5714 5713 5713 5712 5712 5711 5711 5711 5710 5710 5710 5710
5725 5725 5724 5724 5723 5722 5722 5721 5721 5720 5720 5720 5719 5718 5717 5716 5716 5715 5714 5713 5712 5712 5711 5711 5710 5710 5709 5708 5707 5706 5705 5704 5704 5703 5703 5703 5702 5702 5702 5702 5702 5701 5701
5716 5716 5715 5715 5714 5713 5712 5711 5711 5711 5710 5710 5709 5708 5707 5706 5705 5704 5703 5703 5702 5701 5701 5700 5700 5699 5699 5698 5697 5696 5695 5694 5694 5694 5693 5693 5693 5693 5693 5693 5693 5693 5693
5707 5707 5706 5706 5705 5704 5703 5702 5701 5700 5700 5699 5698 5697 5696 5695 5694 5694 5693 5692 5691 5691 5690 5689 5689 5688 5688 5687 5686 5685 5685 5684 5684 5684 5684 5684 5684 5684 5684 5684 5684 5684 5684